Location: Puketoi
(40.5833°S, 176.0167°E)
Time: 12:12:29
(UTC+00:00)

Cosmos 2297 Rocket - Pass Details

Date: 08 February 2023
Orbit: 838 x 844 km, 71.0° (Epoch: 30 March)

Event Time Altitude Azimuth Distance (km) Brightness Sun altitude
Rises 14:21:10 0° 198° (SSW) 3,435 5.9 -28.8°
Reaches altitude 10° 14:23:46 10° 191° (SSW) 2,493 5.2 -28.5°
Maximum altitude 14:29:13 44° 120° (ESE) 1,168 3.2 -28.0°
Enters shadow 14:34:06 13° 50° (NE) 2,288 4.4 -27.5°
